Back to catalog

STARLINK-38082

AliveCommunicationsSSO
NORAD 69993·PAYLOAD·🇺🇸 United States

Launched Jul 11, 2026 from Vandenberg Space Force Base

Loading…

Next Passes (next 24 hours)

TLE

FreshSource: CelesTrak SupGP

Epoch: Sep 15, 2026, 03:34 UTC

1 69993C 26159U   26258.14909722 -.02677200  00000+0 -46430-1 0  2587
2 69993  97.2850  99.9198 0002203  87.9250 104.1044 15.52275702    13

Track STARLINK-38082 in real time with AllMySat

Download on the App Store